FW9514 Weather Reports


Display with metric or nautical units.
time (UTC)temp
F
wind
direction
speed
MPH
gust
MPH
rain 1hr
in
rain 24hr
in
rain mn
in
humidity
%
barometer
mb
20220529055018 67 0.0 0.0 0.00 0.00 0.00 87 1005.5
20220529054518 67 0.0 0.0 0.00 0.00 0.00 87 1005.3
20220529054018 66 0.0 0.0 0.00 0.00 0.00 87 1005.4
20220529053518 66 0.0 0.0 0.00 0.00 0.00 88 1005.3
20220529053017 66 0.0 2.0 0.00 0.00 0.00 89 1005.3
20220529052519 66 135 1.0 5.0 0.00 0.00 0.00 89 1005.2
20220529052027 66 135 3.0 8.0 0.00 0.00 0.00 89 1005.2
20220529051518 65 135 1.0 7.0 0.00 0.00 0.00 90 1005.2
20220529051018 65 293 2.0 5.0 0.00 0.00 0.00 89 1005.2
20220529050518 65 0.0 5.0 0.00 0.00 0.00 90 1005.1
20220529050018 65 293 1.0 2.0 0.00 0.00 0.00 90 1005.1
20220529045518 65 293 1.0 4.0 0.00 0.00 0.00 90 1005.0
20220529045020 64 315 2.0 6.0 0.00 0.00 0.00 90 1004.9
20220529044520 64 315 4.0 7.0 0.00 0.00 0.00 90 1004.8
20220529044018 64 315 3.0 8.0 0.00 0.00 0.00 90 1004.8
20220529043518 64 315 3.0 5.0 0.00 0.00 0.00 90 1004.7
20220529043018 64 293 3.0 6.0 0.00 0.00 0.00 90 1004.7
20220529042518 64 293 1.0 4.0 0.00 0.00 0.00 91 1004.8
20220529042018 64 0.0 3.0 0.00 0.00 0.00 91 1004.8
20220529041519 63 0.0 4.0 0.00 0.00 0.00 91 1004.7
20220529041020 63 315 2.0 5.0 0.00 0.00 0.00 91 1004.6
20220529040518 63 315 2.0 6.0 0.00 0.00 0.00 91 1004.4
20220529040018 63 315 4.0 7.0 0.00 0.00 0.00 91 1004.4
20220529035518 63 315 2.0 6.0 0.00 0.00 0.00 91 1004.3
20220529035017 63 0 1.0 7.0 0.00 0.00 0.00 91 1004.3
20220529034518 63 293 4.0 8.0 0.00 0.00 0.00 91 1004.2
20220529034020 63 293 5.0 8.0 0.00 0.00 0.00 90 1004.2
20220529033518 63 315 3.0 6.0 0.00 0.00 0.00 90 1004.2
20220529033018 63 0.0 4.0 0.00 0.00 0.00 90 1004.2
20220529032518 63 0.0 1.0 0.00 0.00 0.00 90 1004.2
20220529032018 63 293 2.0 5.0 0.00 0.00 0.00 90 1004.2
20220529031519 64 293 3.0 6.0 0.00 0.00 0.00 90 1004.3
20220529031019 64 293 1.0 5.0 0.00 0.00 0.00 90 1004.2
20220529030519 64 293 1.0 5.0 0.00 0.00 0.00 89 1004.2
20220529030019 64 293 1.0 5.0 0.00 0.00 0.00 89 1004.2
20220529025519 64 0.0 3.0 0.00 0.00 0.00 89 1004.1
20220529025019 64 293 1.0 2.0 0.00 0.00 0.00 89 1004.1
20220529024518 64 293 1.0 7.0 0.00 0.00 0.00 89 1004.2
20220529024019 64 0.0 6.0 0.00 0.00 0.00 89 1004.2
20220529023519 64 0.0 4.0 0.00 0.00 0.00 88 1004.2
20220529023019 65 0.0 0.0 0.00 0.00 0.00 88 1004.1
20220529022519 65 0.0 2.0 0.00 0.00 0.00 88 1004.1
20220529022019 65 0.0 4.0 0.00 0.00 0.00 88 1004.2
20220529021519 65 338 1.0 5.0 0.00 0.00 0.00 88 1004.2
20220529021019 65 0.0 3.0 0.00 0.00 0.00 88 1004.2
20220529020519 65 338 1.0 6.0 0.00 0.00 0.00 88 1004.2
20220529020019 65 0.0 2.0 0.00 0.00 0.00 88 1004.2
20220529015519 65 0.0 1.0 0.00 0.00 0.00 88 1004.3
20220529015019 65 0 1.0 7.0 0.00 0.00 0.00 88 1004.3
20220529014519 65 338 2.0 6.0 0.00 0.00 0.00 88 1004.4
20220529014019 65 248 1.0 9.0 0.00 0.00 0.00 88 1004.5
20220529013519 65 113 1.0 6.0 0.00 0.00 0.00 87 1004.4
20220529013019 65 135 3.0 6.0 0.00 0.00 0.00 87 1004.4
20220529012519 65 0.0 2.0 0.00 0.00 0.00 86 1004.5
20220529012019 65 0.0 4.0 0.00 0.00 0.00 86 1004.6
20220529011519 65 315 3.0 9.0 0.00 0.00 0.00 86 1004.6
20220529011019 65 158 3.0 10.0 0.00 0.00 0.00 85 1004.8
20220529010518 65 315 3.0 7.0 0.00 0.00 0.00 84 1004.7
20220529010019 66 315 2.0 7.0 0.00 0.00 0.00 84 1004.7
20220529005519 66 315 4.0 8.0 0.00 0.00 0.00 82 1004.6
20220529005018 67 90 2.0 9.0 0.00 0.00 0.00 80 1004.5
20220529004519 68 45 2.0 7.0 0.00 0.00 0.00 79 1004.5
20220529004019 68 338 1.0 5.0 0.00 0.00 0.00 78 1004.5
20220529003518 68 315 5.0 11.0 0.00 0.00 0.00 78 1004.4
20220529003019 68 0 3.0 9.0 0.00 0.00 0.00 78 1004.5
20220529002519 68 315 3.0 6.0 0.00 0.00 0.00 76 1004.4
20220529002019 68 293 4.0 9.0 0.00 0.00 0.00 75 1004.5
20220529001519 69 315 4.0 8.0 0.00 0.00 0.00 75 1004.6
20220529001018 69 0.0 3.0 0.00 0.00 0.00 76 1004.7
20220529000519 69 315 1.0 6.0 0.00 0.00 0.00 77 1004.8
20220529000019 68 315 3.0 11.0 0.00 0.00 0.00 79 1004.9
20220528235518 68 270 3.0 8.0 0.00 0.00 0.00 81 1004.9
20220528235019 68 338 4.0 9.0 0.00 0.00 0.00 82 1004.8
20220528234519 68 338 3.0 7.0 0.00 0.00 0.00 83 1004.9
20220528234019 68 338 2.0 7.0 0.00 0.00 0.00 83 1004.9
20220528233519 68 0.0 0.0 0.00 0.00 0.00 83 1004.9
20220528233024 68 0.0 0.0 0.00 0.00 0.00 83 1004.9
20220528232524 68 0.0 0.0 0.00 0.00 0.00 83 1004.9
20220528232019 68 0.0 2.0 0.00 0.00 0.00 84 1004.9
20220528231519 68 0.0 0.0 0.00 0.00 0.00 84 1004.8
20220528231019 67 0.0 2.0 0.00 0.00 0.00 85 1004.8
20220528230519 67 0.0 2.0 0.00 0.00 0.00 85 1004.8
20220528230019 67 0.0 4.0 0.00 0.00 0.00 86 1004.9
20220528225519 66 0.0 0.0 0.00 0.00 0.00 87 1005.0
20220528225019 66 315 1.0 6.0 0.00 0.00 0.00 87 1005.1
20220528224519 66 315 2.0 5.0 0.00 0.00 0.00 87 1005.0
20220528224019 66 315 1.0 3.0 0.00 0.00 0.00 87 1005.1
20220528223518 66 0.0 0.0 0.00 0.00 0.00 87 1005.2
20220528223018 66 0.0 2.0 0.00 0.00 0.00 87 1005.3
20220528222519 66 0.0 2.0 0.00 0.00 0.00 88 1005.3
20220528222019 66 315 1.0 3.0 0.00 0.00 0.00 88 1005.3
20220528221519 66 0.0 5.0 0.00 0.00 0.00 88 1005.3
20220528221019 66 0.0 0.0 0.00 0.00 0.00 89 1005.4
20220528220520 66 0.0 0.0 0.00 0.00 0.00 89 1005.4
20220528220019 66 0.0 0.0 0.00 0.00 0.00 89 1005.4
20220528215519 66 0.0 1.0 0.00 0.00 0.00 89 1005.4
20220528215029 66 0 2.0 5.0 0.00 0.00 0.00 89 1005.5
20220528214520 66 315 4.0 6.0 0.00 0.00 0.00 89 1005.5
20220528214018 66 315 3.0 7.0 0.00 0.00 0.00 89 1005.6
20220528213517 66 338 2.0 6.0 0.00 0.00 0.00 89 1005.6
20220528213019 66 315 1.0 5.0 0.00 0.00 0.00 89 1005.6
20220528212519 66 315 2.0 5.0 0.00 0.00 0.00 89 1005.5
20220528212020 66 315 2.0 6.0 0.00 0.00 0.00 89 1005.5
20220528211519 66 293 2.0 7.0 0.00 0.00 0.00 89 1005.5
20220528211019 66 0.0 0.0 0.00 0.00 0.00 89 1005.5
20220528210518 66 293 2.0 4.0 0.00 0.00 0.00 89 1005.5
20220528210017 66 315 3.0 6.0 0.00 0.00 0.00 88 1005.4
20220528205519 66 315 3.0 6.0 0.00 0.00 0.00 88 1005.4
20220528205020 66 315 6.0 8.0 0.00 0.00 0.00 88 1005.5
20220528204519 66 338 4.0 6.0 0.00 0.00 0.00 88 1005.5
20220528204019 66 338 2.0 6.0 0.00 0.00 0.00 88 1005.5
20220528203519 66 0 1.0 4.0 0.00 0.00 0.00 88 1005.4
20220528203019 66 0.0 0.0 0.00 0.00 0.00 89 1005.4
20220528202517 66 0 3.0 9.0 0.00 0.00 0.00 89 1005.4
20220528202020 66 338 2.0 9.0 0.00 0.00 0.00 89 1005.4
20220528201520 66 315 1.0 4.0 0.00 0.00 0.00 90 1005.4
20220528201020 66 338 1.0 4.0 0.00 0.00 0.00 90 1005.6
20220528200519 66 338 4.0 6.0 0.00 0.00 0.00 90 1005.6
20220528200018 66 0 1.0 6.0 0.00 0.00 0.00 89 1005.6
20220528195518 66 315 1.0 5.0 0.00 0.00 0.00 90 1005.6
20220528195018 66 315 2.0 6.0 0.00 0.00 0.00 90 1005.5
20220528194520 66 315 2.0 5.0 0.00 0.00 0.00 90 1005.5
20220528194020 66 0.0 2.0 0.00 0.00 0.00 89 1005.6
20220528193520 66 0.0 0.0 0.00 0.00 0.00 89 1005.6
20220528193019 66 0.0 0.0 0.00 0.00 0.00 89 1005.5
20220528192519 66 0.0 0.0 0.00 0.00 0.00 89 1005.3
20220528192017 66 0.0 0.0 0.00 0.00 0.00 89 1005.3
20220528191520 66 0.0 0.0 0.00 0.00 0.00 89 1005.2
20220528191019 66 0.0 0.0 0.00 0.00 0.00 89 1005.3
20220528190518 66 0.0 1.0 0.00 0.00 0.00 88 1005.3
20220528190017 66 0.0 1.0 0.00 0.00 0.00 88 1005.4
20220528185517 66 0.0 1.0 0.00 0.00 0.00 88 1005.4
20220528185020 66 0.0 0.0 0.00 0.00 0.00 88 1005.4
20220528184518 66 0.0 0.0 0.00 0.00 0.00 88 1005.4
20220528184019 66 0.0 0.0 0.00 0.00 0.00 87 1005.3
20220528183519 66 0.0 0.0 0.00 0.00 0.00 87 1005.3
20220528183018 66 0.0 0.0 0.00 0.00 0.00 87 1005.4
20220528182517 66 0.0 0.0 0.00 0.00 0.00 87 1005.3
20220528182019 66 0.0 0.0 0.00 0.00 0.00 86 1005.2
20220528181520 67 0.0 0.0 0.00 0.00 0.00 86 1005.2
20220528181020 66 0.0 0.0 0.00 0.00 0.00 86 1005.1
20220528180519 66 0.0 0.0 0.00 0.00 0.00 85 1005.1
20220528180018 66 0.0 0.0 0.00 0.00 0.00 84 1005.1
20220528175526 67 0.0 0.0 0.00 0.00 0.00 84 1005.1
20220528175018 66 0.0 0.0 0.00 0.00 0.00 83 1005.0
20220528174519 66 0.0 0.0 0.00 0.00 0.00 83 1005.0
20220528174019 66 0.0 0.0 0.00 0.00 0.00 82 1005.0
20220528173519 66 0.0 0.0 0.00 0.00 0.00 81 1005.1
20220528173020 66 0.0 0.0 0.00 0.00 0.00 79 1005.4
20220528172518 66 0.0 0.0 0.00 0.00 0.00 79 1005.4
20220528172018 67 0.0 0.0 0.00 0.00 0.00 77 1005.5
20220528171518 67 0.0 0.0 0.00 0.00 0.00 76 1005.6
20220528171019 67 0.0 0.0 0.00 0.00 0.00 75 1005.5
20220528170519 67 0.0 0.0 0.00 0.00 0.00 74 1005.5
20220528170020 68 0.0 0.0 0.00 0.00 0.00 69 1005.4
20220528165520 69 0.0 0.0 0.00 0.00 0.00 68 1005.2
20220528165019 69 0.0 0.0 0.00 0.00 0.00 68 1005.2
20220528164518 71 0.0 0.0 0.00 0.00 0.00 64 1005.6
20220528164020 73 0.0 0.0 0.00 0.00 0.00 64 1005.4
20220528163519 73 0.0 0.0 0.00 0.00 0.00 69 1005.5
20220528163018 73 0.0 0.0 0.00 0.00 0.00 68 1005.2
20220528162519 72 0.0 0.0 0.00 0.00 0.00 69 1005.1
20220528162019 72 0.0 0.0 0.00 0.00 0.00 69 1005.0
20220528161518 72 0.0 0.0 0.00 0.00 0.00 69 1005.0
20220528161018 72 0.0 0.0 0.00 0.00 0.00 69 1004.9
20220528160520 72 0.0 0.0 0.00 0.00 0.00 70 1004.9
20220528160020 72 0.0 0.0 0.00 0.00 0.00 72 1004.9
20220528155519 71 0.0 0.0 0.00 0.00 0.00 73 1004.9
20220528155019 72 0.0 0.0 0.00 0.00 0.00 73 1005.0
20220528154519 72 0.0 0.0 0.00 0.00 0.00 73 1004.9
20220528154027 72 0.0 0.0 0.00 0.00 0.00 72 1004.9
20220528153517 72 0.0 0.0 0.00 0.00 0.00 71 1005.0
20220528153019 73 0.0 0.0 0.00 0.00 0.00 70 1005.1
20220528152518 73 0.0 0.0 0.00 0.00 0.00 68 1005.1
20220528152019 74 0.0 0.0 0.00 0.00 0.00 66 1005.0
20220528151519 74 0.0 0.0 0.00 0.00 0.00 68 1005.1
20220528151019 74 0.0 0.0 0.00 0.00 0.00 68 1005.2
20220528150519 74 0.0 0.0 0.00 0.00 0.00 68 1005.2
20220528150019 75 0.0 0.0 0.00 0.00 0.00 69 1005.3
20220528145520 75 0.0 0.0 0.00 0.00 0.00 66 1005.3
20220528145018 76 0.0 0.0 0.00 0.00 0.00 65 1005.3
20220528144517 76 0.0 0.0 0.00 0.00 0.00 66 1005.4
20220528144019 76 0.0 0.0 0.00 0.00 0.00 66 1005.4
20220528143519 76 0.0 0.0 0.00 0.00 0.00 66 1005.5
20220528143020 76 0.0 0.0 0.00 0.00 0.00 67 1005.5
20220528142520 76 0.0 0.0 0.00 0.00 0.00 69 1005.5
20220528142018 75 0.0 0.0 0.00 0.00 0.00 71 1005.5
20220528141518 74 0.0 0.0 0.00 0.00 0.00 73 1005.5
20220528141018 74 0.0 0.0 0.00 0.00 0.00 74 1005.7
20220528140519 73 0.0 0.0 0.00 0.00 0.00 75 1005.7
20220528140020 73 0.0 0.0 0.00 0.00 0.00 75 1005.8
20220528135520 73 0.0 0.0 0.00 0.00 0.00 76 1005.8
20220528135020 73 0.0 0.0 0.00 0.00 0.00 75 1005.8
20220528134518 73 0.0 0.0 0.00 0.00 0.00 75 1005.8
20220528134018 73 0.0 0.0 0.00 0.00 0.00 76 1005.8
20220528133518 73 0.0 0.0 0.00 0.00 0.00 76 1005.9
20220528133017 73 0.0 0.0 0.00 0.00 0.00 76 1005.9
20220528132519 73 0.0 0.0 0.00 0.00 0.00 75 1006.0
20220528132020 74 0.0 0.0 0.00 0.00 0.00 76 1006.0
20220528131520 74 0.0 0.0 0.00 0.00 0.00 76 1006.2
20220528131018 74 0.0 0.0 0.00 0.00 0.00 76 1006.1
20220528130518 74 0.0 0.0 0.00 0.00 0.00 75 1006.3
20220528130020 74 0.0 0.0 0.00 0.00 0.00 75 1006.4
20220528125520 74 0.0 0.0 0.00 0.00 0.00 75 1006.4
20220528125019 74 0.0 0.0 0.00 0.00 0.00 73 1006.3
20220528124517 74 0.0 0.0 0.00 0.00 0.00 73 1006.3
20220528124020 75 0.0 0.0 0.00 0.00 0.00 73 1006.3
20220528123518 74 0.0 0.0 0.00 0.00 0.00 74 1006.4
20220528123017 74 0.0 0.0 0.00 0.00 0.00 73 1006.4
20220528122519 74 0.0 0.0 0.00 0.00 0.00 73 1006.5
20220528122020 74 0.0 0.0 0.00 0.00 0.00 73 1006.6
20220528121519 74 0.0 0.0 0.00 0.00 0.00 73 1006.6
20220528121019 74 0.0 0.0 0.00 0.00 0.00 73 1006.7
20220528120519 74 0.0 0.0 0.00 0.00 0.00 73 1006.7
20220528120018 75 0.0 0.0 0.00 0.00 0.00 73 1006.8
20220528115518 75 0.0 0.0 0.00 0.00 0.00 73 1006.9
20220528115018 74 0.0 0.0 0.00 0.00 0.00 74 1007.0
20220528114519 74 0.0 0.0 0.00 0.00 0.00 74 1007.0
20220528114019 74 0.0 0.0 0.00 0.00 0.00 75 1006.9
20220528113519 73 0.0 0.0 0.00 0.00 0.00 75 1007.0
20220528113020 73 0.0 0.0 0.00 0.00 0.00 74 1007.1
20220528112517 73 0.0 0.0 0.00 0.00 0.00 75 1007.2
20220528112018 73 0.0 0.0 0.00 0.00 0.00 75 1007.3
20220528111520 73 0.0 0.0 0.00 0.00 0.00 74 1007.3
20220528111019 73 0.0 0.0 0.00 0.00 0.00 74 1007.3
20220528110520 73 0.0 0.0 0.00 0.00 0.00 74 1007.4
20220528110020 73 0.0 0.0 0.00 0.00 0.00 74 1007.6
20220528105520 74 0.0 0.0 0.00 0.00 0.00 73 1007.6
20220528105018 74 0.0 0.0 0.00 0.00 0.00 74 1007.5
20220528104520 74 0.0 0.0 0.00 0.00 0.00 73 1007.5
20220528104019 74 0.0 0.0 0.00 0.00 0.00 72 1007.5
20220528103518 74 0.0 0.0 0.00 0.00 0.00 72 1007.5
20220528103018 74 0.0 0.0 0.00 0.00 0.00 72 1007.5
20220528102519 74 0.0 0.0 0.00 0.00 0.00 71 1007.5
20220528102018 74 0.0 0.0 0.00 0.00 0.00 71 1007.6
20220528101519 75 0.0 0.0 0.00 0.00 0.00 70 1007.6
20220528101019 74 0.0 0.0 0.00 0.00 0.00 70 1007.6
20220528100519 74 0.0 0.0 0.00 0.00 0.00 70 1007.5
20220528100018 74 0.0 0.0 0.00 0.00 0.00 69 1007.6
20220528095517 74 0.0 0.0 0.00 0.00 0.00 69 1007.6
20220528095019 75 0.0 0.0 0.00 0.00 0.00 68 1007.5
20220528094520 74 0.0 0.0 0.00 0.00 0.00 68 1007.5
20220528094020 75 0.0 0.0 0.00 0.00 0.00 66 1007.5
20220528093519 75 0.0 0.0 0.00 0.00 0.00 65 1007.5
20220528093018 75 0.0 0.0 0.00 0.00 0.00 65 1007.5
20220528092517 75 0.0 0.0 0.00 0.00 0.00 67 1007.5
20220528092018 75 0.0 0.0 0.00 0.00 0.00 67 1007.6
20220528091519 75 0.0 0.0 0.00 0.00 0.00 66 1007.5
20220528091020 75 0.0 0.0 0.00 0.00 0.00 66 1007.7
20220528090520 75 0.0 0.0 0.00 0.00 0.00 65 1007.7
20220528090019 75 0.0 0.0 0.00 0.00 0.00 64 1007.6
20220528085518 75 0.0 0.0 0.00 0.00 0.00 65 1007.7
20220528085018 75 0.0 0.0 0.00 0.00 0.00 65 1007.7
20220528084518 75 0.0 0.0 0.00 0.00 0.00 65 1007.6
20220528084017 75 0.0 0.0 0.00 0.00 0.00 66 1007.7
20220528083519 75 0.0 0.0 0.00 0.00 0.00 66 1007.7
20220528083018 75 0.0 0.0 0.00 0.00 0.00 65 1007.9
20220528082518 75 0.0 0.0 0.00 0.00 0.00 65 1007.8
20220528082018 75 0.0 0.0 0.00 0.00 0.00 65 1007.8
20220528081517 75 0.0 0.0 0.00 0.00 0.00 64 1007.9
20220528081020 75 0.0 0.0 0.00 0.00 0.00 64 1007.9
20220528080529 75 0.0 0.0 0.00 0.00 0.00 64 1007.8
20220528080020 75 0.0 0.0 0.00 0.00 0.00 62 1007.8
20220528075520 75 0.0 0.0 0.00 0.00 0.00 61 1007.9
20220528075019 75 0.0 0.0 0.00 0.00 0.00 60 1007.8
20220528074518 76 0.0 0.0 0.00 0.00 0.00 59 1007.8
20220528074017 76 0.0 0.0 0.00 0.00 0.00 58 1007.8
20220528073518 76 0.0 0.0 0.00 0.00 0.00 58 1007.8
20220528073019 75 0.0 0.0 0.00 0.00 0.00 58 1007.8
20220528072520 75 0.0 0.0 0.00 0.00 0.00 58 1007.8
20220528072020 75 0.0 0.0 0.00 0.00 0.00 58 1007.9
20220528071517 75 0.0 0.0 0.00 0.00 0.00 59 1007.9
20220528071018 75 0.0 0.0 0.00 0.00 0.00 59 1007.9
20220528070518 74 0.0 0.0 0.00 0.00 0.00 59 1007.9
20220528070018 75 0.0 0.0 0.00 0.00 0.00 57 1008.0
20220528065518 74 0.0 0.0 0.00 0.00 0.00 58 1008.1
20220528065017 74 0.0 0.0 0.00 0.00 0.00 58 1008.1
20220528064518 74 0.0 0.0 0.00 0.00 0.00 58 1008.2
20220528064020 74 0.0 0.0 0.00 0.00 0.00 57 1008.2
20220528063519 73 0.0 0.0 0.00 0.00 0.00 58 1008.3
20220528063020 72 0.0 0.0 0.00 0.00 0.00 59 1008.5
20220528062518 72 0.0 0.0 0.00 0.00 0.00 58 1008.5
20220528062018 72 0.0 0.0 0.00 0.00 0.00 57 1008.5
20220528061518 73 0.0 0.0 0.00 0.00 0.00 56 1008.6
20220528061020 73 0.0 0.0 0.00 0.00 0.00 58 1008.5
20220528060519 73 0.0 0.0 0.00 0.00 0.00 58 1008.5
20220528060020 73 0.0 0.0 0.00 0.00 0.00 62 1008.5
20220528055519 72 0.0 0.0 0.00 0.00 0.00 66 1008.5